Simultaneous Nadir Overpasses (SNOs) Predictions

Prediction of SNOs between GOES-17 and METOP-C Satellite Orbit:

Table of predicted SNOs for the next 14.0 days since TLE Epoch: 8/24/2024
Index Date Time (GOES-17) GOES-17 Lat,Lon METOP-C Lat,Lon Distance(km) Time Diff (sec)
1 08/25/2024 04:38:37 -0.00,-104.69 -0.42,-106.56 212.65 80
2 08/26/2024 04:15:18 -0.00,-104.69 0.73,-101.56 357.05 80
3 08/27/2024 16:34:09 0.01,-104.74 0.29,-106.12 157.08 80
4 08/28/2024 16:13:29 0.01,-104.74 -0.81,-101.12 412.69 80
5 08/30/2024 04:35:07 -0.01,-104.70 -0.23,-105.70 114.44 80
6 08/31/2024 04:11:47 -0.01,-104.70 0.87,-100.70 455.42 80
7 09/01/2024 16:30:38 0.00,-104.75 0.12,-105.26 58.10 80
8 09/04/2024 04:31:36 -0.00,-104.72 -0.03,-104.84 14.09 80
9 09/06/2024 16:29:46 -0.00,-104.78 -0.06,-104.39 43.44 80
